Regional Weather Roundup
Issued by NWS

Home | Current Version | Previous Version | Graphics & Text | Print | Product List | Glossary On
Versions: 1 2 3 4 5 6 7 8 9 10 11 12 13 14 15 16 17 18 19 20 21 22 23 24 25 26 27 28 29 30 31 32 33 34 35 36 37 38 39 40 41 42 43 44 45 46 47 48 49 50
000
ASUS44 KMEG 010300
RWRTN
TENNESSEE HOURLY STATE WEATHER ROUNDUP
NATIONAL WEATHER SERVICE MEMPHIS TN
1000 PM CDT THU JUL 31 2014

TNZ002-004-019-021-049-052-054-088>092-010400-
WEST TENNESSEE

CITY           SKY/WX    TMP DP  RH WIND       PRES   REMARKS
MEMPHIS INTL   CLOUDY    74  66  76 N5        30.06S
NWS MEMPHIS      N/A     73 N/A N/A MISG        N/A
JACKSON        MOCLDY    70  66  87 CALM      30.07R
DYERSBURG      CLOUDY    70  59  68 CALM      30.07S
UNION CITY     CLEAR     66  66 100 CALM      30.06R
PARIS          MOCLDY    63  61  94 CALM      30.08S
LEXINGTON      CLEAR     68  64  88 CALM      30.07R
SAVANNAH       CLEAR     66  66 100 CALM      30.07S
$$

TNZ008-025-027-028-033-062-065-066-010400-
NORTH MIDDLE TENNESSEE

CITY           SKY/WX    TMP DP  RH WIND       PRES   REMARKS
NASHVILLE      PTCLDY    73  61  65 CALM      30.07R
CLARKSVILLE    PTCLDY    71  62  73 W6        30.06R
COOKEVILLE     CLEAR     66  63  88 CALM      30.09S
CROSSVILLE     CLOUDY    68  62  81 CALM      30.14S
$$

TNZ061-075-076-078-094-096-097-010400-
SOUTH MIDDLE TENNESSEE

CITY           SKY/WX    TMP DP  RH WIND       PRES   REMARKS
FAYETTEVILLE   CLEAR     66  57  72 NE9G20    30.08S
TULLAHOMA      CLEAR     64  61  88 CALM      30.10S
WINCHESTER     CLEAR     64  63  94 CALM      30.09S
MCMINNVILLE    CLEAR     64  64 100 CALM      30.09F
COLUMBIA       CLEAR     70  64  83 CALM      30.06S
SHELBYVILLE    CLEAR     66  63  88 E3        30.09R
$$

TNZ017-018-042-046-047-010400-
NORTHEAST TENNESSEE

CITY           SKY/WX    TMP DP  RH WIND       PRES   REMARKS
TRI CITIES     CLOUDY    69  60  73 CALM      30.15R
ELIZABETHTON   PTCLDY    64  61  88 E3        30.16S
$$

TNZ012-013-036-069-073-074-010400-
CENTRAL EAST TENNESSEE

CITY           SKY/WX    TMP DP  RH WIND       PRES   REMARKS
KNOXVILLE      CLOUDY    72  64  76 CALM      30.09R
OAK RIDGE      MOCLDY    71  65  81 CALM      30.11R
GATLINBURG     MOCLDY    70  63  78 CALM      30.10S
$$

TNZ083-085-099-010400-
SOUTHEAST TENNESSEE

CITY           SKY/WX    TMP DP  RH WIND       PRES   REMARKS
CHATTANOOGA    CLOUDY    73  65  75 CALM      30.08S
$$

SKY/WX REPORTED AS FAIR MEANS FEW OR NO CLOUDS BELOW
12 THOUSAND FEET.




USA.gov is the U.S. government's official web portal to all federal, state and local government web resources and services.